| time (UTC) | temp F | wind direction | speed MPH | gust MPH | rain 1hr in | rain 24hr in | rain mn in | humidity % | barometer mb |
| 20260503040028 | 47 | 168 | 2.0 | 12.0 | 0.00 | 0.00 | 0.00 | 58 | 1020.8 |
| 20260503034528 | 47 | 0 | 1.0 | 16.0 | 0.00 | 0.00 | 0.00 | 58 | 1020.5 |
| 20260503033031 | 48 | 140 | 4.0 | 19.0 | 0.00 | 0.00 | 0.00 | 58 | 1020.5 |
| 20260503031527 | 48 | 0 | 3.0 | 15.0 | 0.00 | 0.00 | 0.00 | 58 | 1020.4 |
| 20260503030030 | 48 | 127 | 3.0 | 16.0 | 0.00 | 0.00 | 0.00 | 58 | 1020.2 |
| 20260503024532 | 49 | 0 | 2.0 | 16.0 | 0.00 | 0.00 | 0.00 | 57 | 1020.4 |
| 20260503023030 | 48 | 89 | 2.0 | 13.0 | 0.00 | 0.00 | 0.00 | 59 | 1020.3 |
| 20260503021527 | 47 | 44 | 0.0 | 4.0 | 0.00 | 0.00 | 0.00 | 68 | 1020.6 |
| 20260503020027 | 47 | 0 | 0.0 | 6.0 | 0.00 | 0.00 | 0.00 | 69 | 1020.6 |
| 20260503014534 | 46 | 0 | 1.0 | 8.0 | 0.00 | 0.00 | 0.00 | 71 | 1020.5 |
| 20260503013030 | 47 | 0 | 0.0 | 8.0 | 0.00 | 0.00 | 0.00 | 63 | 1020.4 |
| 20260503011529 | 47 | 58 | 0.0 | 9.0 | 0.00 | 0.00 | 0.00 | 69 | 1020.5 |
| 20260503010030 | 49 | 0 | 0.0 | 9.0 | 0.00 | 0.00 | 0.00 | 55 | 1020.1 |
| 20260503004532 | 49 | 138 | 2.0 | 18.0 | 0.00 | 0.00 | 0.00 | 55 | 1020.2 |
| 20260503003047 | 49 | 161 | 0.0 | 12.0 | 0.00 | 0.00 | 0.00 | 54 | 1020.1 |
| 20260503001547 | 49 | 128 | 1.0 | 14.0 | 0.00 | 0.00 | 0.00 | 54 | 1019.9 |
| 20260503000032 | 49 | 121 | 4.0 | 16.0 | 0.00 | 0.00 | 0.00 | 54 | 1019.8 |
| 20260502234535 | 49 | 157 | 1.0 | 19.0 | 0.00 | 0.00 | 0.00 | 55 | 1019.6 |
| 20260502233032 | 48 | 157 | 3.0 | 21.0 | 0.00 | 0.00 | 0.00 | 56 | 1019.6 |
| 20260502231529 | 48 | 148 | 4.0 | 23.0 | 0.00 | 0.00 | 0.00 | 57 | 1019.4 |
| 20260502230033 | 48 | 140 | 5.0 | 23.0 | 0.00 | 0.00 | 0.00 | 56 | 1019.4 |
| 20260502224529 | 49 | 146 | 4.0 | 24.0 | 0.00 | 0.00 | 0.00 | 56 | 1019.2 |
| 20260502223029 | 49 | 137 | 5.0 | 23.0 | 0.00 | 0.00 | 0.00 | 58 | 1019.0 |
| 20260502221528 | 48 | 144 | 5.0 | 20.0 | 0.00 | 0.00 | 0.00 | 58 | 1019.1 |
| 20260502220033 | 49 | 140 | 3.0 | 20.0 | 0.00 | 0.00 | 0.00 | 56 | 1018.9 |
| 20260502214527 | 49 | 187 | 4.0 | 21.0 | 0.00 | 0.00 | 0.00 | 57 | 1018.8 |
| 20260502213030 | 48 | 96 | 3.0 | 17.0 | 0.00 | 0.00 | 0.00 | 57 | 1018.6 |
| 20260502211530 | 48 | 149 | 2.0 | 17.0 | 0.00 | 0.00 | 0.00 | 58 | 1018.6 |
| 20260502210030 | 48 | 141 | 2.0 | 17.0 | 0.00 | 0.00 | 0.00 | 58 | 1018.6 |
| 20260502204531 | 48 | 0 | 4.0 | 15.0 | 0.00 | 0.00 | 0.00 | 57 | 1018.4 |
| 20260502203028 | 47 | 114 | 3.0 | 15.0 | 0.00 | 0.00 | 0.00 | 59 | 1018.4 |
| 20260502201530 | 47 | 153 | 1.0 | 15.0 | 0.00 | 0.00 | 0.00 | 58 | 1018.2 |
| 20260502200029 | 49 | 165 | 1.0 | 5.0 | 0.00 | 0.00 | 0.00 | 55 | 1018.0 |
| 20260502194530 | 48 | 211 | 1.0 | 9.0 | 0.00 | 0.00 | 0.00 | 57 | 1017.6 |
| 20260502193028 | 47 | 0 | 1.0 | 9.0 | 0.00 | 0.00 | 0.00 | 60 | 1017.5 |
| 20260502191529 | 44 | 0 | 0.0 | 1.0 | 0.00 | 0.00 | 0.00 | 73 | 1017.3 |
| 20260502190034 | 43 | 0 | 0.0 | 0.0 | 0.00 | 0.00 | 0.00 | 75 | 1017.2 |
| 20260502184551 | 42 | 0 | 0.0 | 0.0 | 0.00 | 0.00 | 0.00 | 77 | 1016.8 |
| 20260502183028 | 42 | 0 | 0.0 | 1.0 | 0.00 | 0.00 | 0.00 | 78 | 1016.7 |
| 20260502181531 | 41 | 215 | 1.0 | 4.0 | 0.00 | 0.00 | 0.00 | 79 | 1016.6 |
| 20260502163034 | 38 | 0 | 1.0 | 4.0 | 0.00 | 0.00 | 0.00 | 85 | 1016.0 |
| 20260502161535 | 37 | 0 | 0.0 | 0.0 | 0.00 | 0.00 | 0.00 | 86 | 1015.5 |
| 20260502151527 | 37 | 0 | 0.0 | 0.0 | 0.00 | 0.00 | 0.00 | 83 | 1014.9 |
| 20260502123036 | 40 | 0 | 0.0 | 5.0 | 0.00 | 0.00 | 0.00 | 71 | 1011.8 |
| 20260502121530 | 40 | 111 | 1.0 | 6.0 | 0.00 | 0.00 | 0.00 | 71 | 1011.6 |
| 20260502114531 | 43 | 0 | 1.0 | 12.0 | 0.00 | 0.00 | 0.00 | 63 | 1010.7 |
| 20260502113032 | 43 | 0 | 0.0 | 5.0 | 0.00 | 0.00 | 0.00 | 62 | 1011.0 |
| 20260502111528 | 43 | 0 | 1.0 | 8.0 | 0.00 | 0.00 | 0.00 | 62 | 1010.7 |
| 20260502110031 | 43 | 162 | 3.0 | 17.0 | 0.00 | 0.00 | 0.00 | 62 | 1010.3 |
| 20260502104536 | 42 | 157 | 1.0 | 17.0 | 0.00 | 0.00 | 0.00 | 62 | 1010.2 |
| 20260502103027 | 42 | 150 | 2.0 | 17.0 | 0.00 | 0.00 | 0.00 | 62 | 1010.1 |
| 20260502101530 | 43 | 167 | 3.0 | 18.0 | 0.00 | 0.00 | 0.00 | 62 | 1009.8 |
| 20260502091528 | 42 | 192 | 2.0 | 20.0 | 0.00 | 0.00 | 0.00 | 61 | 1008.9 |
| 20260502071532 | 40 | 172 | 12.0 | 35.0 | 0.00 | 0.00 | 0.00 | 69 | 1005.7 |
| 20260502070033 | 40 | 157 | 12.0 | 31.0 | 0.00 | 0.00 | 0.00 | 70 | 1005.9 |
| 20260502064530 | 40 | 150 | 11.0 | 35.0 | 0.00 | 0.00 | 0.00 | 70 | 1005.6 |
| 20260502063032 | 40 | 157 | 9.0 | 28.0 | 0.00 | 0.00 | 0.00 | 71 | 1005.3 |
| 20260502061529 | 40 | 120 | 7.0 | 27.0 | 0.00 | 0.00 | 0.00 | 70 | 1005.5 |
| 20260502060028 | 39 | 82 | 6.0 | 24.0 | 0.00 | 0.00 | 0.00 | 71 | 1005.2 |
| 20260502054528 | 38 | 90 | 0.0 | 8.0 | 0.00 | 0.00 | 0.00 | 78 | 1005.1 |
| 20260502053030 | 39 | 28 | 0.0 | 8.0 | 0.00 | 0.00 | 0.00 | 77 | 1004.9 |
| 20260502051531 | 38 | 360 | 3.0 | 15.0 | 0.00 | 0.00 | 0.00 | 79 | 1004.7 |
| 20260502050027 | 37 | 76 | 2.0 | 11.0 | 0.00 | 0.00 | 0.00 | 84 | 1004.4 |
| 20260502044528 | 38 | 5 | 2.0 | 11.0 | 0.00 | 0.00 | 0.00 | 81 | 1004.4 |
| 20260502043028 | 38 | 333 | 3.0 | 17.0 | 0.00 | 0.00 | 0.00 | 78 | 1003.9 |
| 20260502041538 | 38 | 301 | 1.0 | 13.0 | 0.00 | 0.00 | 0.00 | 79 | 1003.7 |